LA5HL Weather Reports


time (UTC)temp
C
wind
direction
speed
KPH
gust
KPH
rain 1hr
cm
rain 24hr
cm
rain mn
cm
humidity
%
barometer
mb
20260506230004 0 26 0.0 0.0 0.00 0.00 0.00 82 1011.8
20260506225505 0 26 0.0 0.0 0.00 0.00 0.00 82 1011.8
20260506225004 0 26 0.0 0.0 0.00 0.00 0.00 82 1011.7
20260506224504 1 26 0.0 0.0 0.00 0.00 0.00 82 1011.6
20260506224004 1 26 0.0 0.0 0.00 0.00 0.00 81 1011.6
20260506223504 1 26 0.0 0.0 0.00 0.00 0.00 81 1011.7
20260506223004 0 26 0.0 0.0 0.00 0.00 0.00 81 1011.6
20260506222505 0 26 0.0 0.0 0.00 0.00 0.00 81 1011.6
20260506222005 0 26 0.0 0.0 0.00 0.00 0.00 81 1011.6
20260506221504 0 26 0.0 0.0 0.00 0.00 0.00 81 1011.6
20260506221004 0 26 0.0 0.0 0.00 0.00 0.00 81 1011.6
20260506220504 0 26 0.0 0.0 0.00 0.00 0.00 81 1011.6
20260506220004 0 26 0.0 0.0 0.00 0.00 0.00 81 1011.6
20260506215504 0 26 0.0 0.0 0.00 0.00 0.00 81 1011.6
20260506215006 0 26 0.0 0.0 0.00 0.00 0.00 81 1011.5
20260506204004 1 26 0.0 0.0 0.00 0.00 0.00 78 1010.9
20260506203504 1 26 0.0 0.0 0.00 0.00 0.00 78 1010.9
20260506203004 1 26 0.0 0.0 0.00 0.00 0.00 78 1010.9
20260506202505 1 26 0.0 0.0 0.00 0.00 0.00 78 1010.9
20260506202004 1 26 0.0 0.0 0.00 0.00 0.00 78 1010.7
20260506201504 1 26 0.0 0.0 0.00 0.00 0.00 77 1010.8
20260506201004 1 26 0.0 0.0 0.00 0.00 0.00 77 1010.7
20260506200504 2 26 0.0 0.0 0.00 0.00 0.00 77 1010.7
20260506200004 2 26 0.0 0.0 0.00 0.00 0.00 77 1010.7
20260506195504 2 26 0.0 0.0 0.00 0.00 0.00 77 1010.7
20260506195004 2 26 0.0 0.0 0.00 0.00 0.00 77 1010.7
20260506194504 2 26 0.0 0.0 0.00 0.00 0.00 77 1010.6
20260506194005 2 26 0.0 0.0 0.00 0.00 0.00 76 1010.6
20260506193504 2 26 0.0 0.0 0.00 0.00 0.00 76 1010.5
20260506193005 2 26 0.0 0.0 0.00 0.00 0.00 76 1010.6
20260506192504 2 26 0.0 0.0 0.00 0.00 0.00 76 1010.5
20260506192004 2 26 0.0 0.0 0.00 0.00 0.00 75 1010.5
20260506191505 3 26 0.0 0.0 0.00 0.00 0.00 75 1010.4
20260506191004 3 26 0.0 0.0 0.00 0.00 0.00 75 1010.4
20260506190504 3 26 0.0 0.0 0.00 0.00 0.00 75 1010.4
20260506190005 3 26 0.0 0.0 0.00 0.00 0.00 76 1010.4
20260506185504 3 26 0.0 0.0 0.00 0.00 0.00 76 1010.4
20260506185005 3 26 0.0 0.0 0.00 0.00 0.00 76 1010.3
20260506184504 3 26 0.0 0.0 0.00 0.00 0.00 76 1010.3
20260506184004 4 26 0.0 0.0 0.00 0.00 0.00 76 1010.2
20260506183505 4 26 0.0 0.0 0.00 0.00 0.00 76 1010.1
20260506162504 2 26 0.0 0.0 0.00 0.00 0.00 80 1009.7
20260506162005 2 26 0.0 0.0 0.00 0.00 0.00 80 1009.7
20260506161504 2 26 0.0 0.0 0.00 0.00 0.00 80 1009.5
20260506161005 2 26 0.0 0.0 0.00 0.00 0.00 79 1009.4
20260506160504 2 26 0.0 0.0 0.00 0.00 0.00 79 1009.5
20260506160005 3 26 0.0 0.0 0.00 0.00 0.00 79 1009.4
20260506155504 3 26 0.0 0.0 0.00 0.00 0.00 78 1009.4
20260506155004 3 26 0.0 0.0 0.00 0.00 0.00 77 1009.4
20260506154505 3 26 0.0 0.0 0.00 0.00 0.00 76 1009.4
20260506154004 3 26 0.0 0.0 0.00 0.00 0.00 74 1009.3
20260506153504 4 26 0.0 0.0 0.00 0.00 0.00 74 1009.4
20260506153004 4 26 0.0 0.0 0.00 0.00 0.00 74 1009.4
20260506152504 4 26 0.0 0.0 0.00 0.00 0.00 74 1009.2
20260506152005 4 26 0.0 0.0 0.00 0.00 0.00 75 1009.2
20260506151504 4 26 0.0 0.0 0.00 0.00 0.00 75 1009.3
20260506151004 4 26 0.0 0.0 0.00 0.00 0.00 75 1009.1
20260506150504 3 26 0.0 0.0 0.00 0.00 0.00 75 1009.2
20260506150005 3 26 0.0 0.0 0.00 0.00 0.00 76 1009.2
20260506145504 3 26 0.0 0.0 0.00 0.00 0.00 76 1009.2
20260506145004 3 26 0.0 0.0 0.00 0.00 0.00 76 1009.2
20260506144505 3 26 0.0 0.0 0.00 0.00 0.00 76 1009.0
20260506144004 3 26 0.0 0.0 0.00 0.00 0.00 76 1009.0
20260506143504 3 26 0.0 0.0 0.00 0.00 0.00 76 1009.0
20260506143004 3 26 0.0 0.0 0.00 0.00 0.00 76 1008.9
20260506142505 3 26 0.0 0.0 0.00 0.00 0.00 75 1009.0
20260506142004 3 26 0.0 0.0 0.00 0.00 0.00 75 1008.9
20260506141504 3 26 0.0 0.0 0.00 0.00 0.00 75 1008.9
20260506141004 3 26 0.0 0.0 0.00 0.00 0.00 74 1009.0
20260506140504 3 26 0.0 0.0 0.00 0.00 0.00 74 1008.9
20260506140005 3 26 0.0 0.0 0.00 0.00 0.00 73 1008.9
20260506135504 4 26 0.0 0.0 0.00 0.00 0.00 73 1008.9
20260506135004 5 26 0.0 0.0 0.00 0.00 0.00 73 1008.7
20260506134504 5 26 0.0 0.0 0.00 0.00 0.00 73 1008.7
20260506134004 5 26 0.0 0.0 0.00 0.00 0.00 74 1008.6
20260506133504 5 26 0.0 0.0 0.00 0.00 0.00 75 1008.6
20260506133004 5 26 0.0 0.0 0.00 0.00 0.00 75 1008.6
20260506132504 5 26 0.0 0.0 0.00 0.00 0.00 76 1008.6
20260506121504 3 26 0.0 0.0 0.00 0.00 0.00 74 1008.3
20260506121004 3 26 0.0 0.0 0.00 0.00 0.00 74 1008.2
20260506120505 3 26 0.0 0.0 0.00 0.00 0.00 74 1008.1
20260506120005 3 26 0.0 0.0 0.00 0.00 0.00 73 1008.1
20260506115504 3 26 0.0 0.0 0.00 0.00 0.00 73 1008.1
20260506115004 3 26 0.0 0.0 0.00 0.00 0.00 72 1008.0
20260506114504 3 26 0.0 0.0 0.00 0.00 0.00 71 1007.9
20260506114004 3 26 0.0 0.0 0.00 0.00 0.00 71 1007.9
20260506113504 3 26 0.0 0.0 0.00 0.00 0.00 71 1007.9
20260506113004 3 26 0.0 0.0 0.00 0.00 0.00 70 1007.8
20260506112504 4 26 0.0 0.0 0.00 0.00 0.00 70 1007.7
20260506112004 5 26 0.0 0.0 0.00 0.00 0.00 68 1007.6
20260506111504 6 26 0.0 0.0 0.00 0.00 0.00 66 1007.6
20260506111004 6 26 0.0 0.0 0.00 0.00 0.00 67 1007.7
20260506110504 6 26 0.0 0.0 0.00 0.00 0.00 68 1007.5
20260506110004 6 26 0.0 0.0 0.00 0.00 0.00 69 1007.5
20260506105504 5 26 0.0 0.0 0.00 0.00 0.00 69 1007.5
20260506105004 5 26 0.0 0.0 0.00 0.00 0.00 70 1007.4
20260506104504 5 26 0.0 0.0 0.00 0.00 0.00 70 1007.4
20260506104005 5 26 0.0 0.0 0.00 0.00 0.00 70 1007.4
20260506103504 4 26 0.0 0.0 0.00 0.00 0.00 71 1007.3
20260506103004 4 26 0.0 0.0 0.00 0.00 0.00 71 1007.3
20260506102504 3 26 0.0 0.0 0.00 0.00 0.00 70 1007.3
20260506102004 3 26 0.0 0.0 0.00 0.00 0.00 70 1007.3
20260506080504 3 26 0.0 0.0 0.00 0.00 0.00 70 1006.3
20260506073504 3 26 0.0 0.0 0.00 0.00 0.00 71 1006.1
20260506073004 3 26 0.0 0.0 0.00 0.00 0.00 72 1006.0
20260506072504 2 26 0.0 0.0 0.00 0.00 0.00 72 1006.0
20260506072004 2 26 0.0 0.0 0.00 0.00 0.00 72 1005.9
20260506071504 2 26 0.0 0.0 0.00 0.00 0.00 72 1005.9
20260506071004 2 26 0.0 0.0 0.00 0.00 0.00 72 1005.9
20260506070504 2 26 0.0 0.0 0.00 0.00 0.00 72 1006.0
20260506062505 3 26 0.0 0.0 0.00 0.00 0.00 71 1005.6
20260506062004 3 26 0.0 0.0 0.00 0.00 0.00 72 1005.6
20260506061504 3 26 0.0 0.0 0.00 0.00 0.00 72 1005.5
20260506061004 3 26 0.0 0.0 0.00 0.00 0.00 72 1005.5
20260506060504 3 26 0.0 0.0 0.00 0.00 0.00 73 1005.5
20260506051004 1 26 0.0 0.0 0.00 0.00 0.00 76 1005.2
20260506050504 1 26 0.0 0.0 0.00 0.00 0.00 76 1005.3
20260506045004 1 26 0.0 0.0 0.00 0.00 0.00 77 1005.1
20260506044504 1 26 0.0 0.0 0.00 0.00 0.00 77 1005.2
20260506044004 1 26 0.0 0.0 0.00 0.00 0.00 77 1005.1
20260506043504 1 26 0.0 0.0 0.00 0.00 0.00 77 1005.2
20260506043004 1 26 0.0 0.0 0.00 0.00 0.00 77 1005.1
20260506042504 0 26 0.0 0.0 0.00 0.00 0.00 77 1005.1
20260506042004 0 26 0.0 0.0 0.00 0.00 0.00 77 1005.1
20260506041504 0 26 0.0 0.0 0.00 0.00 0.00 77 1005.0
20260506041004 0 26 0.0 0.0 0.00 0.00 0.00 77 1005.0
20260506040504 0 26 0.0 0.0 0.00 0.00 0.00 77 1005.0
20260506040004 0 26 0.0 0.0 0.00 0.00 0.00 77 1005.0
20260506035504 0 26 0.0 0.0 0.00 0.00 0.00 77 1005.0
20260506035004 0 26 0.0 0.0 0.00 0.00 0.00 77 1004.9
20260506034504 0 26 0.0 0.0 0.00 0.00 0.00 78 1004.8
20260506034004 0 26 0.0 0.0 0.00 0.00 0.00 78 1004.7
20260506033504 0 26 0.0 0.0 0.00 0.00 0.00 78 1004.7
20260506033005 0 26 0.0 0.0 0.00 0.00 0.00 78 1004.8
20260506032504 0 26 0.0 0.0 0.00 0.00 0.00 78 1004.7
20260506032004 0 26 0.0 0.0 0.00 0.00 0.00 78 1004.7
20260506031504 0 26 0.0 0.0 0.00 0.00 0.00 78 1004.6
20260506031004 0 26 0.0 0.0 0.00 0.00 0.00 78 1004.5
20260506030504 0 26 0.0 0.0 0.00 0.00 0.00 78 1004.5